Time,TemperatureF,DewpointF,PressureIn,WindDirection,WindDirectionDegrees,WindSpeedMPH,WindSpeedGustMPH,Humidity,HourlyPrecipIn,Conditions,Clouds,dailyrainin,SoftwareType,DateUTC
2013-07-15 00:11:00,73.0,67.0,-100.00,ESE,122,2.0,4.0,82,0.00,,,0.00,,2013-07-15 05:11:00,
2013-07-15 00:22:00,73.0,67.0,-100.00,ESE,122,2.0,4.0,82,0.00,,,0.00,,2013-07-15 05:22:00,
2013-07-15 00:32:00,73.0,67.0,-100.00,ESE,122,2.0,4.0,82,0.00,,,0.00,,2013-07-15 05:32:00,
2013-07-15 00:43:00,73.0,67.0,-100.00,ESE,122,2.0,4.0,82,0.00,,,0.00,,2013-07-15 05:43:00,
2013-07-15 01:11:00,73.0,68.0,-100.00,ESE,113,4.0,7.0,83,0.00,,,0.00,,2013-07-15 06:11:00,
2013-07-15 01:22:00,73.0,68.0,-100.00,ESE,113,4.0,7.0,83,0.00,,,0.00,,2013-07-15 06:22:00,
2013-07-15 01:32:00,73.0,68.0,-100.00,ESE,113,4.0,7.0,83,0.00,,,0.00,,2013-07-15 06:32:00,
2013-07-15 01:42:00,73.0,68.0,-100.00,ESE,113,4.0,7.0,83,0.00,,,0.00,,2013-07-15 06:42:00,
2013-07-15 02:11:00,73.0,68.0,-100.00,ESE,113,3.0,6.0,84,0.00,,,0.00,,2013-07-15 07:11:00,
2013-07-15 02:21:00,73.0,68.0,-100.00,ESE,113,3.0,6.0,84,0.00,,,0.00,,2013-07-15 07:21:00,
2013-07-15 02:33:00,73.0,68.0,-100.00,ESE,113,3.0,6.0,84,0.00,,,0.00,,2013-07-15 07:33:00,
2013-07-15 02:44:00,73.0,68.0,-100.00,ESE,113,3.0,6.0,84,0.00,,,0.00,,2013-07-15 07:44:00,
2013-07-15 03:11:00,72.0,68.0,-100.00,ENE,58,0.0,2.0,88,0.00,,,0.00,,2013-07-15 08:11:00,
2013-07-15 03:22:00,72.0,68.0,-100.00,ENE,58,0.0,2.0,88,0.00,,,0.00,,2013-07-15 08:22:00,
2013-07-15 03:32:00,72.0,68.0,-100.00,ENE,58,0.0,2.0,88,0.00,,,0.00,,2013-07-15 08:32:00,
2013-07-15 03:43:00,72.0,68.0,-100.00,ENE,58,0.0,2.0,88,0.00,,,0.00,,2013-07-15 08:43:00,
2013-07-15 04:11:00,72.0,69.0,-100.00,NE,55,0.0,0.0,89,0.00,,,0.00,,2013-07-15 09:11:00,
2013-07-15 04:22:00,72.0,69.0,-100.00,NE,55,0.0,0.0,89,0.00,,,0.00,,2013-07-15 09:22:00,
2013-07-15 04:32:00,72.0,69.0,-100.00,NE,55,0.0,0.0,89,0.00,,,0.00,,2013-07-15 09:32:00,
2013-07-15 04:43:00,72.0,69.0,-100.00,NE,55,0.0,0.0,89,0.00,,,0.00,,2013-07-15 09:43:00,
2013-07-15 05:11:00,70.0,68.0,-100.00,NW,306,0.0,0.0,93,0.00,,,0.00,,2013-07-15 10:11:00,
2013-07-15 05:22:00,70.0,68.0,-100.00,NW,306,0.0,0.0,93,0.00,,,0.00,,2013-07-15 10:22:00,
2013-07-15 05:32:00,70.0,68.0,-100.00,NW,306,0.0,0.0,93,0.00,,,0.00,,2013-07-15 10:32:00,
2013-07-15 05:43:00,70.0,68.0,-100.00,NW,306,0.0,0.0,93,0.00,,,0.00,,2013-07-15 10:43:00,
2013-07-15 06:11:00,70.0,68.0,-100.00,NW,320,0.0,0.0,95,0.00,,,0.00,,2013-07-15 11:11:00,
2013-07-15 06:22:00,70.0,68.0,-100.00,NW,320,0.0,0.0,95,0.00,,,0.00,,2013-07-15 11:22:00,
2013-07-15 06:32:00,70.0,68.0,-100.00,NW,320,0.0,0.0,95,0.00,,,0.00,,2013-07-15 11:32:00,
2013-07-15 06:42:00,70.0,68.0,-100.00,NW,320,0.0,0.0,95,0.00,,,0.00,,2013-07-15 11:42:00,
2013-07-15 07:11:00,70.0,68.0,-100.00,East,84,0.0,0.0,95,0.00,,,0.00,,2013-07-15 12:11:00,
2013-07-15 07:22:00,70.0,68.0,-100.00,East,84,0.0,0.0,95,0.00,,,0.00,,2013-07-15 12:22:00,
2013-07-15 07:32:00,70.0,68.0,-100.00,East,84,0.0,0.0,95,0.00,,,0.00,,2013-07-15 12:32:00,
2013-07-15 07:42:00,70.0,68.0,-100.00,East,84,0.0,0.0,95,0.00,,,0.00,,2013-07-15 12:42:00,
2013-07-15 09:11:00,77.0,71.0,-100.00,ESE,105,4.0,8.0,83,-99.99,,,0.00,,2013-07-15 14:11:00,
2013-07-15 09:22:00,77.0,71.0,-100.00,ESE,105,4.0,8.0,83,-99.99,,,0.00,,2013-07-15 14:22:00,
2013-07-15 09:33:00,77.0,71.0,-100.00,ESE,105,4.0,8.0,83,-99.99,,,0.00,,2013-07-15 14:33:00,
2013-07-15 09:42:00,77.0,71.0,-100.00,ESE,105,4.0,8.0,83,-99.99,,,0.00,,2013-07-15 14:42:00,
2013-07-15 10:17:00,83.0,73.0,-100.00,ESE,108,4.0,8.0,72,0.00,,,0.00,,2013-07-15 15:17:00,
2013-07-15 10:27:00,83.0,73.0,-100.00,ESE,108,4.0,8.0,72,0.00,,,0.00,,2013-07-15 15:27:00,
2013-07-15 10:38:00,83.0,73.0,-100.00,ESE,108,4.0,8.0,72,0.00,,,0.00,,2013-07-15 15:38:00,
2013-07-15 10:45:00,83.0,73.0,-100.00,ESE,108,4.0,8.0,72,0.00,,,0.00,,2013-07-15 15:45:00,
2013-07-15 11:15:00,86.0,72.0,-100.00,SE,133,5.0,11.0,63,0.00,,,0.00,,2013-07-15 16:15:00,
2013-07-15 11:24:00,86.0,72.0,-100.00,SE,133,5.0,11.0,63,0.00,,,0.00,,2013-07-15 16:24:00,
2013-07-15 11:33:00,86.0,72.0,-100.00,SE,133,5.0,11.0,63,0.00,,,0.00,,2013-07-15 16:33:00,
2013-07-15 11:45:00,86.0,72.0,-100.00,SE,133,5.0,11.0,63,0.00,,,0.00,,2013-07-15 16:45:00,
2013-07-15 11:46:00,86.0,67.0,-100.00,SSE,150,2.0,5.0,54,0.00,,,0.00,,2013-07-15 16:46:00,
2013-07-15 12:13:00,86.0,67.0,-100.00,SSE,150,2.0,5.0,54,0.00,,,0.00,,2013-07-15 17:13:00,
2013-07-15 12:23:00,86.0,67.0,-100.00,SSE,150,2.0,5.0,54,0.00,,,0.00,,2013-07-15 17:23:00,
2013-07-15 12:36:00,86.0,67.0,-100.00,SSE,150,2.0,5.0,54,0.00,,,0.00,,2013-07-15 17:36:00,
2013-07-15 13:27:00,90.0,68.0,-100.00,SE,131,7.0,17.0,49,0.00,,,0.00,,2013-07-15 18:27:00,
2013-07-15 13:37:00,90.0,68.0,-100.00,SE,131,7.0,17.0,49,0.00,,,0.00,,2013-07-15 18:37:00,
2013-07-15 13:45:00,90.0,68.0,-100.00,SE,131,7.0,17.0,49,0.00,,,0.00,,2013-07-15 18:45:00,
2013-07-15 15:28:00,76.0,70.0,-100.00,SE,128,6.0,10.0,82,0.00,,,0.10,,2013-07-15 20:28:00,
2013-07-15 15:37:00,76.0,70.0,-100.00,SE,128,6.0,10.0,82,0.00,,,0.10,,2013-07-15 20:37:00,
2013-07-15 15:43:00,76.0,70.0,-100.00,SE,128,6.0,10.0,82,0.00,,,0.10,,2013-07-15 20:43:00,
2013-07-15 15:46:00,79.0,70.0,-100.00,SE,131,4.0,8.0,73,0.00,,,0.10,,2013-07-15 20:46:00,
2013-07-15 16:12:00,79.0,70.0,-100.00,SE,131,4.0,8.0,73,0.00,,,0.10,,2013-07-15 21:12:00,
2013-07-15 16:23:00,79.0,70.0,-100.00,SE,131,4.0,8.0,73,0.00,,,0.10,,2013-07-15 21:23:00,
2013-07-15 16:38:00,79.0,70.0,-100.00,SE,131,4.0,8.0,73,0.00,,,0.10,,2013-07-15 21:38:00,
2013-07-15 17:17:00,79.0,68.0,-100.00,SE,142,4.0,9.0,70,0.00,,,0.10,,2013-07-15 22:17:00,
2013-07-15 17:22:00,79.0,68.0,-100.00,SE,142,4.0,9.0,70,0.00,,,0.10,,2013-07-15 22:22:00,
2013-07-15 17:34:00,79.0,68.0,-100.00,SE,142,4.0,9.0,70,0.00,,,0.10,,2013-07-15 22:34:00,
2013-07-15 17:43:00,79.0,68.0,-100.00,SE,142,4.0,9.0,70,0.00,,,0.10,,2013-07-15 22:43:00,
2013-07-15 17:46:00,81.0,69.0,-100.00,SE,124,4.0,8.0,68,0.00,,,0.10,,2013-07-15 22:46:00,
2013-07-15 18:13:00,81.0,69.0,-100.00,SE,124,4.0,8.0,68,0.00,,,0.10,,2013-07-15 23:13:00,
2013-07-15 18:28:00,81.0,69.0,-100.00,SE,124,4.0,8.0,68,0.00,,,0.10,,2013-07-15 23:28:00,
2013-07-15 18:46:00,79.0,70.0,-100.00,SE,128,4.0,7.0,73,0.00,,,0.10,,2013-07-15 23:46:00,
2013-07-15 19:26:00,79.0,70.0,-100.00,SE,128,4.0,7.0,73,0.00,,,0.10,,2013-07-16 00:26:00,
2013-07-15 19:33:00,79.0,70.0,-100.00,SE,128,4.0,7.0,73,0.00,,,0.10,,2013-07-16 00:33:00,
2013-07-15 19:46:00,78.0,71.0,-100.00,NE,47,1.0,3.0,79,0.00,,,0.10,,2013-07-16 00:46:00,
2013-07-15 20:15:00,78.0,71.0,-100.00,NE,47,1.0,3.0,79,0.00,,,0.10,,2013-07-16 01:15:00,
2013-07-15 20:26:00,78.0,71.0,-100.00,NE,47,1.0,3.0,79,0.00,,,0.10,,2013-07-16 01:26:00,
2013-07-15 20:36:00,78.0,71.0,-100.00,NE,47,1.0,3.0,79,0.00,,,0.10,,2013-07-16 01:36:00,
2013-07-15 20:46:00,75.0,72.0,-100.00,East,93,0.0,2.0,90,0.00,,,0.10,,2013-07-16 01:46:00,
2013-07-15 21:11:00,75.0,72.0,-100.00,East,93,0.0,2.0,90,0.00,,,0.10,,2013-07-16 02:11:00,
2013-07-15 21:28:00,75.0,72.0,-100.00,East,93,0.0,2.0,90,0.00,,,0.10,,2013-07-16 02:28:00,
2013-07-15 21:35:00,75.0,72.0,-100.00,East,93,0.0,2.0,90,0.00,,,0.10,,2013-07-16 02:35:00,
2013-07-15 21:46:00,73.0,71.0,-100.00,NE,37,0.0,0.0,94,0.00,,,0.10,,2013-07-16 02:46:00,
2013-07-15 22:28:00,73.0,71.0,-100.00,NE,37,0.0,0.0,94,0.00,,,0.10,,2013-07-16 03:28:00,
2013-07-15 22:38:00,73.0,71.0,-100.00,NE,37,0.0,0.0,94,0.00,,,0.10,,2013-07-16 03:38:00,